Location: Krasnoyarskiy Pitomnik
(51.1333°N, 71.6167°E)
Time: 10:21:32
(UTC+00:00)

H-2A R/B - Pass Details

Date: 22 October 2021
Orbit: 528 x 650 km, 98.3° (Epoch: 06 December)

Event Time Altitude Azimuth Distance (km) Brightness Sun altitude
Rises 13:14:52 0° 150° (SSE) 2,893 5.7 -11.4°
Reaches altitude 10° 13:17:07 10° 145° (SE) 1,973 4.8 -11.7°
Maximum altitude 13:21:17 52° 70° (ENE) 753 2.6 -12.4°
Drops below altitude 10° 13:25:19 10° 354° (N) 1,915 5.1 -13.0°
Sets 13:27:28 0° 350° (N) 2,799 6.0 -13.4°
